Triuchirapalli, India

12:12 AM IST on September 19, 2019 (GMT +0530)
Tiruchirappalli

Weather History for VOTR - August, 2019

Change the Weather History Date:

Sunday, August 25, 2019

  Actual Average Record
Temperature  
Mean Temperature 90 °F -  
Max Temperature 99 °F 91 °F 100 °F (2002)
Min Temperature 80 °F 78 °F 73 °F (2005)
Cooling Degree Days 24    
Growing Degree Days 40 (Base 50)    
Moisture  
Dew Point 72 °F    
Average Humidity 64    
Maximum Humidity 89    
Minimum Humidity 31    
Precipitation  
Precipitation 0.24 in - - ()
Sea Level Pressure  
Sea Level Pressure 29.74 in    
Wind  
Wind Speed 7 mph ()    
Max Wind Speed 13 mph    
Max Gust Speed -    
Visibility 3.5 miles    
Events Rain    
Averages and records for this station are not official NWS values.
T = Trace of Precipitation, MM = Missing Value Source: Averaged Metar Reports

Daily Weather History Graph

Daily Weather History Graph

Search for Another Location

Airport or City:

Astronomy

Aug. 25, 2019 Rise Set
Actual Time 6:05 AM IST 6:29 PM IST
Civil Twilight 5:44 AM IST 6:50 PM IST
Nautical Twilight 5:19 AM IST 7:15 PM IST
Astronomical Twilight 4:53 AM IST 7:40 PM IST
Moon 12:47 AM IST (8/25) 1:47 PM IST (8/25)
Length of Visible Light 13h 06m
Length of Day
12h 23m
Waning Crescent, 33% of the Moon is Illuminated
Aug 25
Waning Crescent
Aug 30
New
Sep 6
First Quarter
Sep 14
Full
Sep 22
Last Quarter

Hourly Weather History & Observations

Time (IST) Temp. Heat Index Dew Point Humidity Pressure Visibility Wind Dir Wind Speed Gust Speed Precip Events Conditions
12:00 AM 84.2 °F 87.3 °F 68.0 °F 58% 29.77 in 3.7 mi WNW 6.9 mph - N/A   Scattered Clouds
12:30 AM 84.2 °F 87.3 °F 68.0 °F 58% 29.77 in 3.7 mi West 9.2 mph - N/A   Scattered Clouds
2:00 AM 84.2 °F 87.3 °F 68.0 °F 58% 29.74 in 3.7 mi West 9.2 mph - N/A   Mostly Cloudy
2:30 AM 84 °F - 69 °F 52% 29.74 in 2 mi West 9.2 mph - -   Haze
2:30 AM 84.2 °F 88.4 °F 69.8 °F 62% 29.74 in 3.7 mi West 9.2 mph - N/A   Mostly Cloudy
3:00 AM 84.2 °F 88.4 °F 69.8 °F 62% 29.74 in 3.7 mi West 9.2 mph - N/A   Mostly Cloudy
4:00 AM 82.4 °F 86.3 °F 69.8 °F 66% 29.74 in 3.7 mi West 9.2 mph - N/A   Mostly Cloudy
4:30 AM 82.4 °F 86.3 °F 69.8 °F 66% 29.74 in 3.7 mi West 6.9 mph - N/A   Mostly Cloudy
5:00 AM 82.4 °F 86.3 °F 69.8 °F 66% 29.74 in 3.7 mi West 6.9 mph - N/A   Mostly Cloudy
5:30 AM 83 °F - 70 °F 56% 29.74 in 2 mi WNW 9.2 mph - -   Haze
5:30 AM 82.4 °F 86.3 °F 69.8 °F 66% 29.74 in 3.7 mi WNW 9.2 mph - N/A   Mostly Cloudy
6:00 AM 82.4 °F 86.3 °F 69.8 °F 66% 29.74 in 3.7 mi West 6.9 mph - N/A   Mostly Cloudy
6:30 AM 82.4 °F 86.3 °F 69.8 °F 66% 29.74 in 3.7 mi WSW 6.9 mph - N/A   Mostly Cloudy
7:00 AM 84.2 °F 88.4 °F 69.8 °F 62% 29.77 in 3.7 mi West 6.9 mph - N/A   Mostly Cloudy
7:30 AM 84.2 °F 88.4 °F 69.8 °F 62% 29.77 in 3.7 mi West 6.9 mph - N/A   Mostly Cloudy
8:00 AM 86.0 °F 90.4 °F 69.8 °F 58% 29.77 in 3.7 mi West 9.2 mph - N/A   Mostly Cloudy
8:30 AM 85 °F - 71 °F 55% 29.79 in 2 mi West 6.9 mph - -   Haze
9:30 AM 86.0 °F 91.8 °F 71.6 °F 62% 29.80 in 3.7 mi West 10.4 mph - N/A   Mostly Cloudy
10:00 AM 87.8 °F 93.8 °F 71.6 °F 58% 29.80 in 3.7 mi West 10.4 mph - N/A   Mostly Cloudy
10:30 AM 89.6 °F 94.7 °F 69.8 °F 52% 29.80 in 3.7 mi West 10.4 mph - N/A   Mostly Cloudy
11:00 AM 89.6 °F 94.7 °F 69.8 °F 52% 29.77 in 3.7 mi WSW 6.9 mph - N/A   Mostly Cloudy
11:30 AM 92 °F - 70 °F 40% 29.76 in 2 mi WSW 6.9 mph - -   Haze
11:30 AM 91.4 °F 96.8 °F 69.8 °F 49% 29.77 in 5.0 mi WSW 6.9 mph - N/A   Mostly Cloudy
12:00 PM 93.2 °F 98.8 °F 69.8 °F 46% 29.74 in 5.0 mi WSW 6.9 mph - N/A   Mostly Cloudy
12:30 PM 93.2 °F 98.8 °F 69.8 °F 46% 29.74 in 5.0 mi West 5.8 mph - N/A   Mostly Cloudy
1:00 PM 93.2 °F 98.8 °F 69.8 °F 46% 29.71 in 5.0 mi SW 4.6 mph - N/A   Mostly Cloudy
1:30 PM 95.0 °F 101.3 °F 69.8 °F 44% 29.68 in 5.0 mi WSW 5.8 mph - N/A   Mostly Cloudy
2:00 PM 95.0 °F 101.3 °F 69.8 °F 44% 29.68 in 5.0 mi SW 6.9 mph - N/A   Mostly Cloudy
2:30 PM 98 °F - 70 °F 31% 29.65 in 2 mi WSW 6.9 mph - -   Haze
2:30 PM 96.8 °F 103.1 °F 69.8 °F 41% 29.65 in 5.0 mi WSW 6.9 mph - N/A   Mostly Cloudy
3:30 PM 96.8 °F 103.1 °F 69.8 °F 41% 29.65 in 3.7 mi South 5.8 mph - N/A   Light Drizzle
4:00 PM 95.0 °F 101.3 °F 69.8 °F 44% 29.65 in 3.1 mi SSE 6.9 mph - N/A   Drizzle
5:00 PM 86.0 °F 93.4 °F 73.4 °F 66% 29.68 in 3.1 mi South 9.2 mph - N/A   Light Drizzle
5:30 PM 83 °F - 76 °F 73% 29.68 in 2 mi ESE 5.8 mph - - Rain Light Drizzle
5:30 PM 84.2 °F 92.3 °F 75.2 °F 74% 29.68 in 3.1 mi ESE 5.8 mph - N/A   Light Drizzle
6:00 PM 82.4 °F 89.5 °F 75.2 °F 79% 29.71 in 2.5 mi West 12.7 mph - N/A   Drizzle
6:30 PM 80.6 °F 87.1 °F 77.0 °F 89% 29.71 in 2.5 mi WSW 9.2 mph - N/A   Drizzle
7:30 PM 80.6 °F 87.1 °F 77.0 °F 89% 29.74 in 3.1 mi West 4.6 mph - N/A   Mostly Cloudy
8:00 PM 80.6 °F 87.1 °F 77.0 °F 89% 29.74 in 3.1 mi Calm Calm - N/A   Mostly Cloudy
8:30 PM 81 °F - 77 °F 84% 29.75 in 2 mi SSE 4.6 mph - -   Haze
8:30 PM 80.6 °F 87.1 °F 77.0 °F 89% 29.74 in 3.7 mi SSE 4.6 mph - N/A   Mostly Cloudy
9:30 PM 80.6 °F 87.1 °F 77.0 °F 89% 29.77 in 3.7 mi West 4.6 mph - N/A   Mostly Cloudy
10:00 PM 80.6 °F 87.1 °F 77.0 °F 89% 29.80 in 3.7 mi SW 4.6 mph - N/A   Mostly Cloudy
10:30 PM 80.6 °F 87.1 °F 77.0 °F 89% 29.80 in 3.7 mi WSW 6.9 mph - N/A   Mostly Cloudy
11:00 PM 80.6 °F 87.1 °F 77.0 °F 89% 29.80 in 3.7 mi SW 4.6 mph - N/A   Light Drizzle
11:30 PM 81 °F - 75 °F 78% 29.80 in 2 mi SSW 4.6 mph - - Rain Light Drizzle
11:30 PM 80.6 °F 86.2 °F 75.2 °F 84% 29.80 in 3.7 mi SSW 4.6 mph - N/A   Light Drizzle